Location: Unspecified
(20.0000°S, 0.0000°E)
Time: 16:15:48
(UTC+00:00)

BEESAT - Pass Details

Date: 26 August 2019
Orbit: 701 x 708 km, 98.6° (Epoch: 17 September)

Event Time Altitude Azimuth Distance (km) Brightness Sun altitude
Rises 05:25:07 0° 178° (S) 3,107 ? -12.1°
Reaches altitude 10° 05:27:28 10° 184° (S) 2,183 ? -11.6°
Maximum altitude 05:32:00 44° 255° (WSW) 966 ? -10.5°
Drops below altitude 10° 05:36:30 10° 327° (NNW) 2,161 ? -9.5°
Sets 05:38:49 0° 333° (NNW) 3,073 ? -9.0°
